WE8L Weather Reports


Display with metric or nautical units.
time (UTC)temp
F
wind
direction
speed
MPH
gust
MPH
rain 1hr
in
rain 24hr
in
rain mn
in
humidity
%
barometer
mb
20260902203553 94 287 0.0 0.0 0.00 0.00 0.00 56 1019.4
20260902203052 93 310 0.0 3.0 0.00 0.00 0.00 56 1019.2
20260902202548 94 210 0.0 0.0 0.00 0.00 0.00 54 1019.4
20260902202044 93 19 0.0 0.0 0.00 0.00 0.00 54 1019.2
20260902201540 93 239 0.0 1.0 0.00 0.00 0.00 55 1019.3
20260902201038 93 6 0.0 0.0 0.00 0.00 0.00 55 1019.3
20260902200534 94 217 0.0 1.0 0.00 0.00 0.00 54 1019.3
20260902200030 94 228 0.0 1.0 0.00 0.00 0.00 54 1019.3
20260902195526 94 7 0.0 0.0 0.00 0.00 0.00 55 1019.4
20260902195025 94 249 0.0 0.0 0.00 0.00 0.00 55 1019.4
20260902194524 94 264 0.0 1.0 0.00 0.00 0.00 54 1019.5
20260902194020 94 236 1.0 3.0 0.00 0.00 0.00 54 1019.8
20260902193516 94 323 0.0 2.0 0.00 0.00 0.00 54 1019.7
20260902193015 95 329 0.0 0.0 0.00 0.00 0.00 53 1019.9
20260902192513 94 238 0.0 0.0 0.00 0.00 0.00 54 1019.7
20260902192012 95 276 1.0 2.0 0.00 0.00 0.00 53 1019.9
20260902191508 94 246 0.0 1.0 0.00 0.00 0.00 53 1020.0
20260902191003 95 328 0.0 2.0 0.00 0.00 0.00 54 1020.0
20260902190458 94 240 0.0 1.0 0.00 0.00 0.00 54 1020.2
20260902185953 94 270 0.0 2.0 0.00 0.00 0.00 53 1020.0
20260902185449 94 253 0.0 1.0 0.00 0.00 0.00 53 1020.1
20260902184944 93 354 0.0 2.0 0.00 0.00 0.00 53 1020.1
20260902184439 93 214 0.0 2.0 0.00 0.00 0.00 53 1020.3
20260902183935 93 283 0.0 3.0 0.00 0.00 0.00 53 1020.1
20260902183431 92 312 0.0 1.0 0.00 0.00 0.00 56 1020.3
20260902182927 92 348 0.0 0.0 0.00 0.00 0.00 56 1020.2
20260902182423 93 303 0.0 2.0 0.00 0.00 0.00 55 1020.3
20260902181919 92 233 0.0 0.0 0.00 0.00 0.00 56 1020.4
20260902181415 92 304 0.0 1.0 0.00 0.00 0.00 55 1020.4
20260902180915 93 250 0.0 3.0 0.00 0.00 0.00 54 1020.4
20260902180410 93 279 0.0 0.0 0.00 0.00 0.00 54 1020.6
20260902175905 93 5 0.0 1.0 0.00 0.00 0.00 56 1020.5
20260902175400 93 349 0.0 0.0 0.00 0.00 0.00 56 1020.6
20260902174855 93 249 0.0 1.0 0.00 0.00 0.00 57 1020.5
20260902174353 93 349 0.0 0.0 0.00 0.00 0.00 57 1020.6
20260902173848 93 315 0.0 1.0 0.00 0.00 0.00 58 1020.9
20260902173348 92 273 0.0 1.0 0.00 0.00 0.00 59 1020.7
20260902172843 92 260 0.0 2.0 0.00 0.00 0.00 58 1020.9
20260902172342 92 280 0.0 0.0 0.00 0.00 0.00 58 1020.7
20260902171837 91 293 0.0 0.0 0.00 0.00 0.00 60 1020.9
20260902171333 91 262 0.0 0.0 0.00 0.00 0.00 64 1020.9
20260902170829 91 279 0.0 0.0 0.00 0.00 0.00 63 1020.9
20260902170324 92 294 0.0 0.0 0.00 0.00 0.00 63 1020.9
20260902165820 92 296 0.0 1.0 0.00 0.00 0.00 61 1021.2
20260902165319 91 228 0.0 0.0 0.00 0.00 0.00 63 1021.2
20260902164814 91 273 0.0 0.0 0.00 0.00 0.00 62 1021.3
20260902164309 91 288 0.0 0.0 0.00 0.00 0.00 62 1021.3
20260902163808 91 334 0.0 1.0 0.00 0.00 0.00 62 1021.3
20260902163303 91 329 0.0 0.0 0.00 0.00 0.00 63 1021.4
20260902162801 90 305 0.0 0.0 0.00 0.00 0.00 63 1021.3
20260902162256 90 265 0.0 3.0 0.00 0.00 0.00 64 1021.2
20260902161751 90 347 0.0 0.0 0.00 0.00 0.00 62 1021.4
20260902161247 90 190 0.0 0.0 0.00 0.00 0.00 64 1021.2
20260902160743 90 258 0.0 0.0 0.00 0.00 0.00 66 1021.3
20260902160242 89 263 0.0 1.0 0.00 0.00 0.00 65 1021.4
20260902155741 90 220 0.0 2.0 0.00 0.00 0.00 65 1021.6
20260902155239 89 321 0.0 0.0 0.00 0.00 0.00 66 1021.6
20260902154735 89 268 0.0 0.0 0.00 0.00 0.00 66 1021.5
20260902154230 89 215 0.0 0.0 0.00 0.00 0.00 68 1021.5
20260902153729 89 230 0.0 0.0 0.00 0.00 0.00 68 1021.7
20260902153229 89 283 0.0 0.0 0.00 0.00 0.00 67 1021.6
20260902152726 88 273 0.0 1.0 0.00 0.00 0.00 69 1021.6
20260902152221 88 316 0.0 1.0 0.00 0.00 0.00 69 1021.5
20260902151716 87 260 0.0 0.0 0.00 0.00 0.00 70 1021.6
20260902151211 87 346 0.0 1.0 0.00 0.00 0.00 70 1021.7
20260902150706 87 291 0.0 0.0 0.00 0.00 0.00 70 1021.8
20260902150202 87 349 0.0 0.0 0.00 0.00 0.00 71 1021.7
20260902145701 86 357 0.0 0.0 0.00 0.00 0.00 71 1021.7
20260902145201 86 226 0.0 0.0 0.00 0.00 0.00 71 1021.8
20260902144658 86 341 0.0 0.0 0.00 0.00 0.00 73 1021.5
20260902144153 86 252 0.0 0.0 0.00 0.00 0.00 72 1021.5
20260902143653 85 320 0.0 0.0 0.00 0.00 0.00 72 1021.6
20260902143148 85 240 0.0 0.0 0.00 0.00 0.00 72 1021.8
20260902142644 85 276 0.0 1.0 0.00 0.00 0.00 72 1021.6
20260902142140 85 313 0.0 0.0 0.00 0.00 0.00 73 1021.6
20260902141639 85 284 0.0 0.0 0.00 0.00 0.00 72 1021.6
20260902141135 84 273 0.0 0.0 0.00 0.00 0.00 73 1021.7
20260902140630 84 284 0.0 0.0 0.00 0.00 0.00 72 1021.5
20260902140125 85 221 0.0 0.0 0.00 0.00 0.00 72 1021.5
20260902135625 84 266 0.0 0.0 0.00 0.00 0.00 72 1021.6
20260902135120 84 321 0.0 0.0 0.00 0.00 0.00 73 1021.5
20260902134616 84 289 0.0 0.0 0.00 0.00 0.00 74 1021.5
20260902134115 84 223 0.0 0.0 0.00 0.00 0.00 73 1021.7
20260902133615 83 223 0.0 0.0 0.00 0.00 0.00 74 1021.6
20260902133110 83 223 0.0 0.0 0.00 0.00 0.00 75 1021.5
20260902132606 82 232 0.0 0.0 0.00 0.00 0.00 76 1021.6
20260902132101 82 235 0.0 0.0 0.00 0.00 0.00 77 1021.6
20260902131557 81 241 0.0 0.0 0.00 0.00 0.00 78 1021.6
20260902131057 81 242 0.0 0.0 0.00 0.00 0.00 78 1021.7
20260902130553 81 214 0.0 0.0 0.00 0.00 0.00 79 1021.5
20260902130048 80 213 0.0 0.0 0.00 0.00 0.00 79 1021.5
20260902125544 80 102 0.0 0.0 0.00 0.00 0.00 80 1021.5
20260902125040 80 154 0.0 0.0 0.00 0.00 0.00 80 1021.5
20260902124537 79 132 0.0 0.0 0.00 0.00 0.00 81 1021.7
20260902124036 79 105 0.0 0.0 0.00 0.00 0.00 82 1021.5
20260902123532 79 102 0.0 0.0 0.00 0.00 0.00 83 1021.4
20260902123032 78 102 0.0 0.0 0.00 0.00 0.00 84 1021.4
20260902122531 77 102 0.0 0.0 0.00 0.00 0.00 86 1021.5
20260902122027 77 101 0.0 0.0 0.00 0.00 0.00 87 1021.4
20260902121521 77 102 0.0 0.0 0.00 0.00 0.00 87 1021.2
20260902121017 77 105 0.0 0.0 0.00 0.00 0.00 87 1021.0
20260902120513 76 105 0.0 0.0 0.00 0.00 0.00 87 1021.3
20260902120008 76 106 0.0 0.0 0.00 0.00 0.00 87 1021.3
20260902115503 76 102 0.0 0.0 0.00 0.00 0.00 87 1021.0
20260902115000 76 105 0.0 0.0 0.00 0.00 0.00 87 1021.0
20260902114455 76 103 0.0 0.0 0.00 0.00 0.00 87 1020.8
20260902113950 76 105 0.0 0.0 0.00 0.00 0.00 88 1020.8
20260902113446 76 105 0.0 0.0 0.00 0.00 0.00 88 1020.8
20260902112945 75 105 0.0 0.0 0.00 0.00 0.00 88 1020.8
20260902112441 75 112 0.0 0.0 0.00 0.00 0.00 88 1020.6
20260902111937 75 112 0.0 0.0 0.00 0.00 0.00 88 1020.7
20260902111434 75 112 0.0 0.0 0.00 0.00 0.00 88 1020.5
20260902110929 75 112 0.0 0.0 0.00 0.00 0.00 88 1020.5
20260902110425 75 112 0.0 0.0 0.00 0.00 0.00 89 1020.5
20260902105925 75 112 0.0 0.0 0.00 0.00 0.00 89 1020.5
20260902105420 75 112 0.0 0.0 0.00 0.00 0.00 89 1020.6
20260902104915 75 112 0.0 0.0 0.00 0.00 0.00 89 1020.7
20260902104411 75 112 0.0 0.0 0.00 0.00 0.00 89 1020.7
20260902103910 75 112 0.0 0.0 0.00 0.00 0.00 89 1020.7
20260902103406 75 112 0.0 0.0 0.00 0.00 0.00 89 1020.8
20260902102900 75 112 0.0 0.0 0.00 0.00 0.00 89 1020.4
20260902102358 75 112 0.0 0.0 0.00 0.00 0.00 89 1020.6
20260902101854 75 112 0.0 0.0 0.00 0.00 0.00 89 1020.6
20260902101349 75 115 0.0 0.0 0.00 0.00 0.00 89 1020.7
20260902100848 75 122 0.0 0.0 0.00 0.00 0.00 88 1020.7
20260902100348 75 122 0.0 0.0 0.00 0.00 0.00 89 1020.7
20260902095843 75 122 0.0 0.0 0.00 0.00 0.00 89 1020.5
20260902095343 75 122 0.0 0.0 0.00 0.00 0.00 89 1020.4
20260902094842 75 122 0.0 0.0 0.00 0.00 0.00 90 1020.3
20260902094339 75 122 0.0 0.0 0.00 0.00 0.00 90 1020.3
20260902093838 75 122 0.0 0.0 0.00 0.00 0.00 90 1020.4
20260902093334 74 122 0.0 0.0 0.00 0.00 0.00 91 1020.5
20260902092832 74 122 0.0 0.0 0.00 0.00 0.00 91 1020.5
20260902092329 74 122 0.0 0.0 0.00 0.00 0.00 92 1020.4
20260902091828 75 122 0.0 0.0 0.00 0.00 0.00 92 1020.5
20260902091324 74 121 0.0 0.0 0.00 0.00 0.00 91 1020.4
20260902090821 74 121 0.0 0.0 0.00 0.00 0.00 91 1020.4
20260902090320 74 121 0.0 0.0 0.00 0.00 0.00 91 1020.4
20260902085819 75 121 0.0 0.0 0.00 0.00 0.00 91 1020.2
20260902085314 74 121 0.0 0.0 0.00 0.00 0.00 90 1020.4
20260902084810 74 121 0.0 0.0 0.00 0.00 0.00 90 1020.1
20260902084307 75 121 0.0 0.0 0.00 0.00 0.00 90 1020.0
20260902083802 75 121 0.0 0.0 0.00 0.00 0.00 90 1020.0
20260902083301 75 121 0.0 0.0 0.00 0.00 0.00 90 1020.0
20260902082756 75 121 0.0 0.0 0.00 0.00 0.00 90 1019.8
20260902082253 75 121 0.0 0.0 0.00 0.00 0.00 90 1019.9
20260902081749 75 121 0.0 0.0 0.00 0.00 0.00 89 1020.1
20260902081244 75 121 0.0 0.0 0.00 0.00 0.00 90 1019.9
20260902080739 75 121 0.0 0.0 0.00 0.00 0.00 90 1019.9
20260902080236 75 121 0.0 0.0 0.00 0.00 0.00 89 1019.9
20260902075735 75 121 0.0 0.0 0.00 0.00 0.00 89 1019.8
20260902075232 75 121 0.0 0.0 0.00 0.00 0.00 89 1019.8
20260902074731 75 121 0.0 0.0 0.00 0.00 0.00 89 1019.9
20260902074227 75 120 0.0 0.0 0.00 0.00 0.00 89 1019.8
20260902073722 75 120 0.0 0.0 0.00 0.00 0.00 89 1019.7
20260902073218 75 120 0.0 0.0 0.00 0.00 0.00 89 1019.8
20260902072714 75 120 0.0 0.0 0.00 0.00 0.00 88 1019.8
20260902072210 75 120 0.0 0.0 0.00 0.00 0.00 88 1019.9
20260902071706 76 120 0.0 0.0 0.00 0.00 0.00 88 1019.7
20260902071201 76 120 0.0 0.0 0.00 0.00 0.00 87 1019.9
20260902070657 76 120 0.0 0.0 0.00 0.00 0.00 87 1020.0
20260902070157 76 120 0.0 0.0 0.00 0.00 0.00 87 1019.9
20260902065655 76 120 0.0 0.0 0.00 0.00 0.00 86 1019.9
20260902065151 76 120 0.0 0.0 0.00 0.00 0.00 86 1019.9
20260902064646 77 120 0.0 0.0 0.00 0.00 0.00 86 1019.8
20260902064142 77 120 0.0 0.0 0.00 0.00 0.00 86 1019.8
20260902063638 77 120 0.0 0.0 0.00 0.00 0.00 86 1019.9
20260902063132 77 120 0.0 0.0 0.00 0.00 0.00 85 1019.7
20260902062631 77 120 0.0 0.0 0.00 0.00 0.00 85 1019.6
20260902062126 77 120 0.0 0.0 0.00 0.00 0.00 85 1019.8
20260902061626 77 120 0.0 0.0 0.00 0.00 0.00 83 1020.0
20260902061122 78 120 0.0 0.0 0.00 0.00 0.00 83 1019.8
20260902060618 78 120 0.0 0.0 0.00 0.00 0.00 83 1019.9
20260902060114 78 120 0.0 0.0 0.00 0.00 0.00 83 1019.9
20260902055610 78 120 0.0 0.0 0.00 0.00 0.00 83 1019.8
20260902055105 78 120 0.0 0.0 0.00 0.00 0.00 83 1020.0
20260902054600 78 120 0.0 0.0 0.00 0.00 0.00 83 1019.9
20260902054056 78 120 0.0 0.0 0.00 0.00 0.00 83 1020.0
20260902053551 78 120 0.0 0.0 0.00 0.00 0.00 83 1020.1
20260902053050 78 120 0.0 0.0 0.00 0.00 0.00 83 1019.9
20260902052545 78 121 0.0 0.0 0.00 0.00 0.00 84 1019.8
20260902052041 78 120 0.0 0.0 0.00 0.00 0.00 82 1020.0
20260902051540 79 120 0.0 0.0 0.00 0.00 0.00 82 1020.0
20260902051039 79 120 0.0 0.0 0.00 0.00 0.00 82 1019.9
20260902050534 79 120 0.0 0.0 0.00 0.00 0.00 82 1020.1
20260902050029 79 120 0.0 0.0 0.00 0.00 0.00 82 1020.0
20260902045525 79 120 0.0 0.0 0.00 0.00 0.00 82 1019.8
20260902045022 80 120 0.0 0.0 0.00 0.00 0.00 81 1020.0
20260902044521 80 120 0.0 0.0 0.00 0.00 0.00 80 1020.0
20260902044017 80 120 0.0 0.0 0.00 0.00 0.00 80 1020.0
20260902043513 80 120 0.0 0.0 0.00 0.00 0.00 79 1020.0
20260902043013 80 120 0.0 0.0 0.00 0.00 0.00 78 1019.9
20260902042512 80 120 0.0 0.0 0.00 0.00 0.00 78 1020.0
20260902042008 80 120 0.0 0.0 0.00 0.00 0.00 78 1020.0
20260902041508 81 120 0.0 0.0 0.00 0.00 0.00 77 1019.9
20260902041003 81 120 0.0 0.0 0.00 0.00 0.00 77 1020.0
20260902040503 81 120 0.0 0.0 0.00 0.00 0.00 77 1020.0
20260902040002 81 120 0.0 0.0 0.00 0.00 0.00 77 1020.0
20260902035457 81 120 0.0 0.0 0.00 0.00 0.00 77 1019.9
20260902034956 81 120 0.0 0.0 0.00 0.00 0.00 77 1020.0
20260902034451 81 120 0.0 0.0 0.00 0.00 0.00 77 1020.0
20260902033950 81 120 0.0 0.0 0.00 0.00 0.00 77 1020.0
20260902033450 81 120 0.0 0.0 0.00 0.00 0.00 76 1020.0
20260902032948 82 120 0.0 0.0 0.00 0.00 0.00 76 1020.1
20260902032444 82 120 0.0 0.0 0.00 0.00 0.00 76 1019.9
20260902031938 82 120 0.0 0.0 0.00 0.00 0.00 76 1019.8
20260902031433 82 120 0.0 0.0 0.00 0.00 0.00 75 1019.9
20260902030930 82 120 0.0 0.0 0.00 0.00 0.00 75 1019.8
20260902030430 83 120 0.0 0.0 0.00 0.00 0.00 74 1019.8
20260902025928 83 120 0.0 0.0 0.00 0.00 0.00 75 1019.7
20260902025425 83 120 0.0 0.0 0.00 0.00 0.00 74 1019.8
20260902024920 83 120 0.0 0.0 0.00 0.00 0.00 74 1020.1
20260902024415 83 120 0.0 0.0 0.00 0.00 0.00 73 1019.9
20260902023910 83 101 0.0 0.0 0.00 0.00 0.00 73 1019.8
20260902023406 83 102 0.0 0.0 0.00 0.00 0.00 73 1020.0
20260902022905 83 101 0.0 0.0 0.00 0.00 0.00 73 1019.9
20260902022359 83 101 0.0 0.0 0.00 0.00 0.00 72 1019.9
20260902021856 84 101 0.0 0.0 0.00 0.00 0.00 72 1020.0
20260902021355 84 100 0.0 0.0 0.00 0.00 0.00 71 1020.0
20260902020851 84 85 0.0 0.0 0.00 0.00 0.00 71 1019.8
20260902020347 84 154 0.0 0.0 0.00 0.00 0.00 70 1019.8
20260902015843 85 154 0.0 0.0 0.00 0.00 0.00 70 1019.8
20260902015338 85 138 0.0 0.0 0.00 0.00 0.00 69 1019.7
20260902014834 85 153 0.0 0.0 0.00 0.00 0.00 69 1019.7
20260902014330 85 134 0.0 0.0 0.00 0.00 0.00 69 1019.6
20260902013829 86 154 0.0 0.0 0.00 0.00 0.00 68 1019.7
20260902013324 86 116 0.0 0.0 0.00 0.00 0.00 68 1019.6
20260902012820 86 125 0.0 2.0 0.00 0.00 0.00 68 1019.7
20260902012316 85 161 1.0 1.0 0.00 0.00 0.00 69 1019.6
20260902011811 85 163 0.0 0.0 0.00 0.00 0.00 70 1019.6
20260902011306 84 170 0.0 0.0 0.00 0.00 0.00 71 1019.4
20260902010804 84 208 0.0 0.0 0.00 0.00 0.00 74 1019.5
20260902010300 83 230 0.0 0.0 0.00 0.00 0.00 73 1019.3
20260902005759 83 230 0.0 0.0 0.00 0.00 0.00 74 1019.5
20260902005254 83 230 0.0 0.0 0.00 0.00 0.00 75 1019.4
20260902004749 83 230 0.0 0.0 0.00 0.00 0.00 76 1019.4
20260902004244 84 230 0.0 0.0 0.00 0.00 0.00 75 1019.5
20260902003738 84 230 0.0 0.0 0.00 0.00 0.00 74 1019.3
20260902003234 84 230 0.0 0.0 0.00 0.00 0.00 73 1019.2
20260902002730 84 230 0.0 0.0 0.00 0.00 0.00 73 1019.4
20260902002229 85 230 0.0 0.0 0.00 0.00 0.00 73 1019.3
20260902001725 85 230 0.0 0.0 0.00 0.00 0.00 72 1019.5
20260902001225 86 230 0.0 0.0 0.00 0.00 0.00 72 1019.5
20260902000720 86 230 0.0 0.0 0.00 0.00 0.00 71 1019.4
20260902000215 87 230 0.0 0.0 0.00 0.00 0.00 69 1019.5
20260901235715 87 230 0.0 0.0 0.00 0.00 0.00 70 1019.5
20260901235210 88 231 0.0 0.0 0.00 0.00 0.00 68 1019.4
20260901234709 89 231 0.0 0.0 0.00 0.00 0.00 64 1019.5
20260901234204 89 231 0.0 0.0 0.00 0.00 0.00 62 1019.6
20260901233704 90 231 0.0 0.0 0.00 0.00 0.00 61 1019.7
20260901233200 90 231 0.0 0.0 0.00 0.00 0.00 59 1019.6
20260901232655 90 231 0.0 0.0 0.00 0.00 0.00 57 1019.7
20260901232150 91 231 0.0 0.0 0.00 0.00 0.00 57 1019.8
20260901231647 91 231 0.0 0.0 0.00 0.00 0.00 56 1019.8
20260901231143 91 231 0.0 0.0 0.00 0.00 0.00 57 1019.8
20260901230638 92 238 0.0 0.0 0.00 0.00 0.00 56 1019.7
20260901230138 92 318 0.0 0.0 0.00 0.00 0.00 56 1019.6
20260901225633 92 278 0.0 0.0 0.00 0.00 0.00 56 1019.8
20260901225127 92 282 0.0 0.0 0.00 0.00 0.00 54 1019.7
20260901224624 93 211 1.0 2.0 0.00 0.00 0.00 53 1019.7
20260901224119 93 315 0.0 0.0 0.00 0.00 0.00 54 1019.6
20260901223614 93 338 0.0 0.0 0.00 0.00 0.00 53 1019.6
20260901223110 93 325 0.0 0.0 0.00 0.00 0.00 53 1019.6
20260901222606 93 13 0.0 0.0 0.00 0.00 0.00 53 1019.5
20260901222101 93 219 0.0 0.0 0.00 0.00 0.00 54 1019.6
20260901221558 93 339 0.0 0.0 0.00 0.00 0.00 54 1019.7
20260901221053 93 202 0.0 0.0 0.00 0.00 0.00 53 1019.5
20260901220552 93 296 0.0 0.0 0.00 0.00 0.00 53 1019.7
20260901220051 93 290 0.0 0.0 0.00 0.00 0.00 55 1019.6
20260901215549 94 314 0.0 2.0 0.00 0.00 0.00 53 1019.7
20260901215044 94 251 0.0 1.0 0.00 0.00 0.00 52 1019.6
20260901214544 94 233 0.0 3.0 0.00 0.00 0.00 52 1019.4
20260901214043 94 314 0.0 3.0 0.00 0.00 0.00 51 1019.4
20260901213543 95 358 0.0 1.0 0.00 0.00 0.00 51 1019.3
20260901213043 94 257 0.0 0.0 0.00 0.00 0.00 52 1019.6
20260901212543 94 287 0.0 1.0 0.00 0.00 0.00 52 1019.4
20260901212041 94 210 0.0 1.0 0.00 0.00 0.00 52 1019.4
20260901211541 94 280 0.0 1.0 0.00 0.00 0.00 51 1019.5
20260901211037 94 258 2.0 3.0 0.00 0.00 0.00 51 1019.6
20260901210532 93 231 0.0 1.0 0.00 0.00 0.00 54 1019.6
20260901210028 94 242 0.0 2.0 0.00 0.00 0.00 53 1019.6
20260901205524 94 242 1.0 2.0 0.00 0.00 0.00 53 1019.4
20260901205024 93 306 0.0 1.0 0.00 0.00 0.00 53 1019.5
20260901204520 94 314 0.0 5.0 0.00 0.00 0.00 53 1019.5
20260901204014 93 343 0.0 1.0 0.00 0.00 0.00 53 1019.6